Location: Oulou
(10.7667°N, 12.5167°W)
Time: 15:56:44
(UTC+00:00)

GPS 2-15 Rocket1 - Pass Details

Date: 20 September 2019
Orbit: 624 x 675 km, 19.8° (Epoch: 22 October)

Event Time Altitude Azimuth Distance (km) Brightness Sun altitude
Rises 19:02:44 0° 241° (WSW) 2,882 7.6 -4.5°
Reaches altitude 10° 19:05:08 10° 236° (SW) 1,977 6.6 -5.1°
Maximum altitude 19:09:37 51° 160° (SSE) 781 3.5 -6.2°
Drops below altitude 10° 19:14:09 10° 84° (E) 1,990 5.0 -7.3°
Enters shadow 19:14:26 - 83° (E) 2,099 5.1 -7.4°
